Observations for Trim Patrick St
| Time | AQI | Temp °C | Hum % | Pres Pa | CO μg/m³ | H₂S μg/m³ | NO μg/m³ | NO₂ μg/m³ | O₃ μg/m³ | SO₂ μg/m³ | PM1 μg/m³ | PM2.5 μg/m³ | PM10 μg/m³ |
|---|---|---|---|---|---|---|---|---|---|---|---|---|---|
| Saturday 1 August 2026 | |||||||||||||
| 01:30 | 2 | 13.5 | 69 | 38,458 | 0.3 | 3.52 | 3.54 | 25.23 | 48.8 | 0 | 5.43 | 9.56 | 10.52 |
| 01:29 | 2 | 13.6 | 70 | 38,457 | 0.27 | 2.23 | 3.56 | 13.13 | 32.24 | 0 | 6.29 | 10.9 | 12 |
| 01:28 | 2 | 13.6 | 68 | 38,456 | 0.27 | 3.45 | 3.46 | 16.51 | 43.95 | 0 | 7.14 | 11.83 | 13.01 |
| 01:27 | 2 | 13.5 | 69 | 38,454 | 0.29 | 3.73 | 3.54 | 22.11 | 46.59 | 0 | 5.43 | 10.3 | 11.33 |
| 01:26 | 2 | 13.6 | 67 | 38,452 | 0.29 | 3.89 | 3.36 | 15.73 | 45.19 | 0 | 5.43 | 10.43 | 11.48 |
| 01:25 | 2 | 13.6 | 70 | 38,449 | 0.28 | 3.94 | 3.55 | 17.87 | 50.04 | 0 | 6.29 | 10.18 | 11.19 |
| 01:24 | 2 | 13.6 | 67 | 38,445 | 0.26 | 2.93 | 3.28 | 14.02 | 28.3 | 0 | 6.29 | 10.4 | 11.44 |
| 01:23 | 2 | 13.6 | 69 | 38,440 | 0.29 | 4.92 | 3.46 | 20.8 | 45.12 | 0 | 6.29 | 12.45 | 13.69 |
| 01:22 | 2 | 13.6 | 69 | 38,433 | 0.28 | 4.28 | 3.37 | 22.53 | 47.82 | 0 | 7.14 | 13.18 | 14.5 |
| 01:21 | 2 | 13.6 | 71 | 38,423 | 0.28 | 4.33 | 3.56 | 22.08 | 47.79 | 0 | 5.43 | 10.87 | 11.96 |
| 01:20 | 2 | 13.6 | 70 | 38,410 | 0.28 | 4.51 | 3.54 | 21.43 | 47.11 | 0 | 5.43 | 10.94 | 12.04 |
| 01:19 | 2 | 13.6 | 69 | 38,394 | 0.27 | 3.47 | 3.47 | 17.92 | 40.96 | 0 | 6.29 | 11 | 12.1 |
| 01:18 | 2 | 13.6 | 69 | 38,371 | 0.28 | 4.48 | 3.42 | 17.17 | 46.56 | 0 | 6.29 | 12.46 | 13.7 |
| 01:17 | 2 | 13.6 | 70 | 38,342 | 0.27 | 4.3 | 3.55 | 19.82 | 42.64 | 0 | 6.29 | 11.63 | 12.8 |
| 01:16 | 2 | 13.6 | 69 | 38,303 | 0.28 | 4.48 | 3.34 | 18.21 | 45.84 | 0 | 6.29 | 11.03 | 12.14 |
| 01:15 | 2 | 13.6 | 68 | 38,250 | 0.29 | 5.57 | 3.45 | 27.87 | 46.26 | 0 | 7.14 | 11.77 | 12.94 |
| 01:14 | 2 | 13.6 | 70 | 38,180 | 0.29 | 4.38 | 3.55 | 22.83 | 46.02 | 0 | 6.29 | 10.91 | 12 |
| 01:13 | 2 | 13.6 | 70 | 38,086 | 0.3 | 3.58 | 3.56 | 18.7 | 43.41 | 0 | 5.43 | 10.16 | 11.18 |
| 01:12 | 2 | 13.6 | 70 | 37,960 | 0.28 | 3.73 | 3.55 | 16.09 | 40.8 | 0 | 7.14 | 11.66 | 12.82 |
| 01:11 | 2 | 13.6 | 70 | 37,794 | 0.3 | 4.48 | 3.56 | 20.28 | 46.6 | 0 | 6.29 | 10.9 | 11.99 |